Temperature
13 13 13 13 13 13 13 13 14 14 14 14 14 14 14 14 14 14 14 14 14 14 14 14 14 14 14 15 15 15 15 15 15 15 15 15 15 15 15 15 15 15 15
13 13 13 13 13 13 13 13 13 13 13 14 14 14 14 14 14 14 14 14 14 14 14 14 14 14 14 14 14 15 15 15 15 15 15 15 15 14 14 15 15 15 15
13 13 13 13 13 13 13 13 13 13 13 13 13 13 13 13 13 13 14 14 14 14 14 14 14 14 14 14 14 14 14 14 14 14 15 15 14 14 14 14 14 14 14
12 13 13 13 12 12 12 13 13 13 13 13 13 13 13 13 13 13 13 13 13 13 14 14 14 14 14 14 14 14 14 14 14 14 14 14 14 14 14 14 14 14 14
12 12 13 12 12 12 12 12 13 13 13 13 13 13 13 13 13 13 13 13 13 13 13 13 13 13 13 13 13 14 14 13 13 14 14 14 14 14 14 14 14 14 14
11 12 12 12 12 12 12 12 12 12 12 12 12 12 12 12 13 13 13 13 13 13 13 13 13 13 13 13 13 13 13 13 13 13 13 13 13 14 14 14 14 14 14
11 11 12 12 12 12 12 12 12 12 12 12 12 12 12 12 12 12 12 12 12 12 12 13 13 13 13 13 13 13 13 13 13 13 13 13 13 13 13 13 13 13 13
11 11 11 11 12 12 12 12 12 12 12 12 12 12 12 12 12 12 12 12 12 12 12 12 12 12 12 12 12 12 12 12 12 13 13 13 13 13 13 13 13 13 13
10 11 11 11 11 11 11 11 11 11 11 11 11 11 11 11 11 11 11 12 12 12 12 12 12 12 12 12 12 12 12 12 12 12 12 12 12 13 13 13 13 13 13
10 10 11 11 11 11 11 11 11 11 11 11 11 11 11 11 11 11 11 11 11 11 11 11 11 11 11 11 11 12 12 12 12 12 12 12 12 12 12 12 12 12 12
10 10 10 10 10 10 10 10 10 10 10 10 10 10 10 10 10 10 10 11 11 11 11 11 11 11 11 11 11 11 11 11 11 11 11 11 12 12 12 12 12 12 12
9 9 9 10 10 10 10 10 10 10 10 10 10 10 10 10 10 10 10 10 10 10 10 10 10 10 10 11 11 11 11 11 11 11 11 11 11 11 11 12 12 12 12
8 9 9 9 9 9 9 9 10 10 10 9 9 9 9 9 9 9 9 9 10 10 10 10 10 10 10 10 10 10 10 10 10 10 11 11 11 11 11 11 11 11 11
8 8 8 9 9 9 9 9 9 9 9 9 9 9 9 9 9 9 9 9 9 9 9 9 9 9 9 9 9 10 10 10 10 10 10 10 10 10 10 11 11 11 11
7 7 8 8 8 8 8 8 8 8 8 8 8 8 8 8 8 8 8 8 8 9 9 9 9 9 9 9 9 9 9 9 9 10 10 10 10 10 10 10 10 11 11
7 7 7 7 8 8 8 8 8 8 8 8 8 8 8 8 8 8 8 8 8 8 8 8 8 8 8 8 8 8 8 9 9 9 9 9 10 10 10 10 10 10 10
6 6 7 7 7 7 7 7 7 7 7 7 7 7 7 7 7 7 7 7 7 7 8 8 8 8 8 8 8 8 8 8 8 8 8 9 9 9 10 10 10 10 10
6 6 6 6 7 6 6 6 6 6 6 6 6 6 6 7 7 7 7 7 7 7 7 7 7 7 7 7 7 8 8 8 8 8 8 8 9 9 9 9 9 9 9
5 5 5 5 6 6 6 6 6 6 6 6 6 6 6 6 6 6 6 6 6 6 6 6 6 7 7 7 7 7 7 7 7 7 8 8 8 8 8 8 9 9 9
4 4 5 5 5 5 5 5 5 5 5 5 5 5 5 5 6 6 6 6 6 6 6 6 6 6 6 6 6 6 7 7 7 7 7 7 7 7 8 8 8 8 8
3 4 4 4 4 4 4 4 4 4 4 4 5 5 5 5 5 5 5 5 5 5 5 5 5 5 5 5 5 6 6 6 6 6 6 7 7 7 7 7 7 8 8
2 3 3 3 3 3 3 3 3 3 4 4 4 4 4 4 4 4 4 4 4 4 4 4 4 5 5 4 4 4 5 5 5 6 6 6 6 6 6 7 7 7 7
1 2 2 2 3 3 3 3 3 3 3 3 3 3 3 3 3 3 3 4 4 4 4 4 4 4 4 4 4 4 4 4 4 5 5 5 5 6 6 6 6 6 6
1 1 1 1 2 2 2 2 2 2 2 2 2 2 2 2 3 3 3 3 3 3 3 3 3 3 3 3 3 3 3 3 3 3 4 4 5 5 5 5 6 6 6
-1 -0 0 0 1 1 1 1 1 1 1 1 1 1 2 2 2 2 2 2 2 2 2 2 3 3 3 3 3 3 3 3 3 3 3 3 4 4 4 5 5 5 5
-1 -1 -1 -0 0 0 1 0 0 0 1 1 1 1 1 1 1 1 1 1 2 2 2 2 2 2 2 2 2 2 2 2 2 2 2 2 3 3 4 4 4 5 5
Wind_Speed
6 9 8 8 9 9 9 10 10 10 10 10 11 11 11 11 11 11 11 12 12 12 12 12 12 13 14 14 15 15 15 15 15 15 15 15 14 14 15 14 14 14 15
8 10 9 9 9 9 10 10 10 10 10 10 10 10 10 10 11 11 11 12 12 12 12 12 12 13 13 13 14 14 13 13 13 13 14 14 14 14 14 14 13 13 14
9 10 9 9 9 9 10 10 10 10 10 10 10 10 10 10 11 11 11 11 12 12 12 12 12 12 12 12 12 12 12 11 10 11 11 11 12 13 14 14 13 14 14
9 9 9 10 10 10 10 10 10 10 10 10 10 10 10 10 11 11 11 11 11 11 11 11 11 11 11 11 11 11 10 10 9 8 8 9 10 11 12 12 13 13 13
8 9 9 10 10 11 11 10 10 10 10 10 10 10 10 10 10 10 10 10 10 10 10 10 10 10 10 10 10 9 9 9 9 9 8 9 9 10 11 11 12 12 12
7 9 10 10 10 11 11 11 11 11 11 10 10 10 10 10 10 9 10 9 9 9 9 9 10 10 9 9 8 8 8 8 8 8 8 8 9 10 10 10 10 11 11
7 10 10 10 10 10 10 10 10 10 10 10 11 10 10 11 11 10 9 9 9 9 9 9 9 9 8 8 7 7 8 8 8 8 8 8 8 9 10 9 10 10 10
7 9 9 9 10 9 9 9 10 9 9 9 10 10 10 11 10 10 10 9 8 8 8 8 8 8 8 7 7 7 8 7 7 7 8 8 8 9 9 9 9 10 10
8 8 7 7 8 8 8 8 9 9 9 9 10 10 10 10 10 10 10 9 8 8 7 7 7 7 7 7 6 6 7 7 7 6 7 8 8 8 8 9 9 9 9
7 7 6 7 7 7 7 8 8 9 9 9 9 10 9 9 9 9 9 9 8 7 7 6 6 6 6 6 5 5 6 6 6 7 7 7 7 7 8 7 8 8 8
6 5 5 6 6 6 5 6 7 8 8 8 8 8 8 8 8 8 8 8 8 7 6 5 5 5 5 5 4 4 4 4 5 7 6 6 7 7 6 6 6 7 7
4 4 4 5 5 5 5 5 5 6 6 6 6 6 6 7 6 6 7 7 7 7 6 5 4 3 3 3 3 3 3 5 6 6 5 6 6 6 6 5 5 5 5
3 4 4 5 6 5 4 4 4 5 4 5 6 6 6 7 6 6 5 5 6 6 5 4 4 3 3 3 3 2 3 4 5 5 5 5 5 5 4 4 3 4 4
4 4 4 5 5 5 5 4 4 4 4 5 5 6 6 5 5 5 5 5 5 5 4 4 4 4 4 4 3 3 3 4 4 4 4 4 4 3 2 2 3 3 3
3 4 4 4 4 5 5 4 4 4 4 4 5 6 6 4 3 4 4 4 5 6 5 4 4 5 4 5 4 3 3 3 3 3 3 3 3 2 1 2 2 2 2
3 3 3 3 4 4 3 3 3 4 4 5 5 5 6 5 4 3 3 3 4 4 4 4 3 3 3 3 3 4 3 2 2 3 3 2 2 2 1 1 2 2 3
3 3 3 2 4 3 3 3 3 4 4 4 4 5 5 5 4 3 2 3 4 4 4 4 3 3 2 2 3 3 3 3 2 2 2 1 1 0 0 0 1 2 2
4 3 2 2 2 3 3 3 2 3 3 3 3 4 4 4 4 3 2 2 4 4 3 2 1 1 1 1 2 2 2 3 2 2 2 2 1 0 1 1 1 1 2
3 3 3 2 2 2 3 2 2 3 3 3 3 3 3 3 3 3 2 2 3 3 2 2 2 1 1 2 2 2 2 1 1 1 1 1 1 1 1 2 2 1 2
3 3 3 3 3 2 2 2 2 2 2 3 3 3 2 2 2 2 2 2 2 1 1 1 2 1 1 1 2 2 2 2 1 1 0 1 1 1 1 1 1 2 2
3 3 3 2 2 2 1 1 1 1 1 1 2 2 2 2 1 2 1 1 2 0 1 1 1 1 1 1 1 1 2 1 1 1 0 1 1 1 1 1 1 1 1
4 4 3 2 2 2 1 1 0 1 0 0 1 2 2 1 1 1 1 0 1 0 1 1 1 1 1 1 0 1 1 2 1 1 1 0 0 1 1 1 1 1 1
4 4 3 3 3 2 2 1 1 2 1 1 1 1 1 1 1 1 1 1 1 0 0 0 0 1 1 2 1 0 1 2 1 1 1 1 1 1 0 0 0 1 1
4 4 4 3 3 3 2 2 1 1 1 2 1 1 2 2 1 1 1 1 1 0 0 1 0 1 1 1 1 1 1 1 1 1 1 1 2 2 1 1 1 1 1
5 4 4 4 4 4 3 2 2 1 1 1 1 2 2 2 1 1 1 1 1 1 1 1 1 1 1 1 1 1 2 2 1 2 2 2 2 2 2 2 1 1 1
6 5 5 5 5 5 4 3 2 2 2 2 2 2 2 2 2 2 2 1 1 1 1 2 2 2 2 2 2 2 2 2 2 2 2 2 2 2 2 2 2 2 2
Wind_Direction
94 97 99 96 92 87 84 83 83 80 79 77 73 71 73 74 69 68 70 70 68 69 71 71 70 69 71 69 69 68 70 70 72 71 69 70 71 74 76 76 75 76 80
103 104 104 98 93 87 86 86 83 80 79 76 73 71 72 73 71 70 71 70 69 69 69 69 70 71 74 73 71 69 69 72 75 75 71 69 71 73 74 73 75 80 81
97 101 104 100 95 91 88 88 85 81 78 76 74 72 70 70 68 68 69 69 68 67 67 68 70 71 73 73 71 70 69 68 69 76 75 75 76 76 76 75 77 82 82
93 99 100 100 99 95 90 89 86 82 77 75 74 73 71 69 67 66 67 68 68 69 69 68 70 72 73 73 70 67 62 56 54 59 65 73 80 81 81 79 79 83 83
85 93 101 103 101 97 91 87 84 79 75 76 74 73 71 67 65 65 65 68 67 68 71 72 72 74 74 72 68 61 53 47 45 58 62 68 77 85 83 82 82 83 84
84 89 98 104 100 96 93 89 83 79 75 76 75 71 72 68 63 63 64 66 67 69 70 71 73 73 72 69 65 55 46 38 43 55 63 68 79 89 85 83 83 84 86
85 85 93 97 99 96 94 92 87 82 77 74 71 68 68 67 62 60 62 63 65 68 69 69 72 73 71 66 58 47 39 35 52 54 62 65 81 89 88 84 83 84 85
81 81 90 90 92 92 89 89 88 85 82 78 73 71 66 64 62 57 59 60 60 65 69 70 70 69 68 61 52 44 31 32 51 64 65 67 82 92 89 88 86 84 83
75 74 78 84 88 88 86 84 84 85 83 79 75 73 70 68 64 59 55 55 56 58 66 71 69 65 61 58 51 39 26 26 38 62 74 71 83 93 93 90 89 87 86
73 70 65 65 68 76 83 85 85 85 82 80 76 72 71 71 67 61 56 54 54 53 54 63 66 62 56 55 47 30 17 22 46 58 70 80 86 93 95 92 90 90 87
65 63 59 57 59 60 73 82 84 86 83 81 78 74 70 67 65 62 60 56 54 51 48 53 62 57 51 51 39 19 20 29 53 63 65 81 92 90 92 94 93 91 89
71 60 51 49 51 54 60 71 76 79 81 78 78 70 63 63 61 65 68 59 51 47 43 44 45 42 41 39 28 15 16 28 57 66 73 78 88 91 90 93 95 97 97
87 68 52 44 40 47 43 56 64 72 70 68 68 60 64 65 61 56 55 54 46 44 36 29 27 24 26 31 36 31 22 38 60 68 78 84 82 87 95 101 104 107 108
86 68 51 38 35 34 45 40 54 62 60 59 52 55 57 61 57 47 39 34 32 31 26 19 16 21 22 18 26 42 39 47 68 78 77 88 86 79 92 118 124 119 112
86 71 59 45 42 29 35 32 47 53 57 61 57 57 53 54 54 47 40 35 26 21 20 14 19 22 16 10 12 23 49 61 76 92 95 87 88 91 105 140 149 146 148
82 77 62 54 39 35 37 34 38 61 62 59 57 57 56 51 47 43 36 32 29 17 3 6 16 24 20 19 12 8 30 53 74 105 119 106 91 80 94 164 170 174 177
80 78 66 61 34 32 39 34 42 60 68 63 58 61 58 51 42 38 34 23 19 10 4 9 15 25 34 27 9 9 19 31 58 73 98 118 131 182 275 218 197 190 189
84 84 66 59 45 26 28 28 32 62 69 65 67 66 59 52 47 39 37 22 8 5 10 8 33 15 13 10 348 342 17 30 37 46 79 100 119 218 255 265 221 193 196
66 77 69 59 57 33 16 19 35 52 62 69 66 70 66 54 52 40 34 17 7 4 5 0 6 358 5 4 344 332 344 354 24 25 79 97 127 158 205 236 222 197 208
55 62 70 63 50 37 22 30 37 44 37 49 49 50 55 53 56 43 32 14 8 14 6 12 358 351 343 343 330 326 317 299 356 357 81 99 107 119 126 167 179 219 222
51 46 45 55 51 49 35 32 35 22 359 22 24 41 35 34 56 57 27 6 4 25 345 7 5 3 339 344 340 327 315 280 232 271 85 108 119 121 107 119 151 181 217
37 30 28 28 31 27 7 345 308 278 284 303 16 30 23 5 6 33 58 358 351 8 15 45 29 350 303 314 317 308 314 314 323 291 309 274 255 101 85 63 112 157 154
27 23 20 18 13 1 11 21 24 15 6 17 9 347 339 339 353 3 337 333 327 285 192 89 123 356 289 291 306 192 204 239 300 297 307 324 332 344 95 76 10 212 195
17 16 16 13 18 7 15 26 24 357 320 314 301 299 312 314 307 287 280 308 313 279 214 258 281 266 220 254 285 295 253 217 208 285 295 309 335 330 321 333 335 303 223
19 20 15 13 12 9 6 6 356 343 323 327 333 328 336 323 315 306 280 268 298 290 246 273 287 269 240 236 243 279 278 280 239 224 260 285 303 308 318 300 282 255 243
21 20 15 10 8 9 4 358 357 344 338 337 332 323 328 321 310 310 289 280 274 278 250 253 259 265 263 255 247 245 244 244 238 233 244 264 269 277 291 274 255 234 220
Height
1522 1522 1523 1525 1526 1527 1528 1529 1530 1531 1532 1533 1533 1534 1535 1535 1536 1536 1537 1537 1538 1538 1539 1539 1540 1540 1541 1541 1541 1542 1543 1543 1544 1544 1545 1545 1546 1546 1546 1547 1547 1548 1548
1521 1522 1524 1525 1526 1527 1528 1529 1530 1531 1532 1533 1534 1535 1535 1536 1537 1537 1538 1538 1539 1539 1540 1540 1541 1541 1542 1542 1543 1543 1544 1544 1545 1546 1546 1546 1547 1548 1548 1549 1549 1549 1550
1521 1522 1524 1525 1526 1528 1529 1530 1531 1532 1533 1534 1535 1535 1536 1537 1538 1538 1539 1539 1540 1540 1541 1541 1541 1542 1542 1543 1544 1544 1545 1546 1546 1547 1547 1548 1548 1549 1549 1550 1551 1551 1552
1521 1523 1524 1525 1527 1528 1529 1530 1531 1532 1533 1534 1535 1536 1537 1537 1538 1539 1539 1540 1540 1541 1541 1542 1542 1542 1543 1544 1544 1545 1546 1547 1547 1548 1548 1549 1549 1550 1551 1551 1552 1552 1553
1521 1523 1524 1526 1527 1528 1529 1530 1531 1532 1533 1534 1535 1536 1537 1537 1538 1539 1539 1540 1541 1541 1541 1542 1542 1543 1544 1544 1545 1546 1546 1547 1548 1549 1549 1550 1550 1551 1551 1552 1553 1553 1554
1522 1523 1524 1526 1527 1528 1529 1530 1531 1532 1533 1534 1535 1536 1536 1537 1538 1539 1540 1540 1541 1541 1542 1542 1543 1543 1544 1545 1545 1546 1547 1548 1548 1549 1550 1550 1551 1552 1552 1553 1553 1554 1555
1522 1523 1524 1525 1527 1528 1529 1530 1531 1532 1533 1534 1535 1536 1536 1537 1538 1538 1539 1540 1541 1541 1542 1542 1542 1543 1544 1545 1546 1546 1547 1548 1548 1549 1550 1550 1551 1552 1553 1553 1554 1555 1555
1522 1523 1524 1525 1527 1528 1529 1530 1531 1532 1533 1534 1534 1535 1536 1536 1537 1538 1538 1539 1540 1541 1541 1542 1542 1543 1544 1545 1546 1546 1547 1548 1548 1549 1550 1550 1551 1552 1553 1554 1554 1555 1556
1522 1522 1523 1525 1526 1527 1528 1529 1530 1531 1532 1533 1534 1535 1535 1536 1536 1537 1538 1538 1539 1540 1541 1541 1542 1543 1544 1545 1545 1546 1547 1547 1548 1549 1549 1550 1551 1552 1552 1553 1554 1555 1556
1521 1522 1523 1524 1525 1526 1528 1529 1530 1531 1532 1532 1533 1534 1535 1535 1536 1537 1537 1538 1539 1539 1540 1541 1541 1542 1543 1544 1545 1546 1547 1547 1548 1548 1549 1550 1551 1552 1552 1553 1554 1555 1556
1520 1521 1522 1523 1524 1525 1527 1528 1529 1530 1531 1532 1532 1533 1534 1534 1535 1536 1536 1537 1538 1538 1539 1540 1540 1541 1542 1543 1544 1545 1546 1546 1547 1547 1548 1549 1550 1551 1552 1553 1554 1555 1556
1519 1520 1521 1522 1523 1524 1526 1527 1528 1528 1529 1530 1531 1532 1532 1533 1534 1535 1535 1536 1537 1537 1538 1539 1539 1540 1541 1542 1543 1544 1545 1545 1546 1547 1548 1549 1549 1550 1551 1552 1553 1554 1555
1518 1519 1520 1521 1522 1523 1524 1525 1526 1527 1528 1529 1530 1530 1531 1532 1533 1533 1534 1535 1535 1536 1536 1537 1538 1538 1539 1540 1541 1542 1543 1544 1545 1545 1546 1547 1548 1549 1550 1551 1552 1553 1554
1517 1518 1519 1520 1521 1522 1523 1524 1525 1525 1526 1527 1528 1529 1529 1530 1531 1531 1532 1533 1533 1534 1535 1535 1536 1537 1538 1539 1539 1540 1542 1542 1543 1544 1545 1546 1547 1548 1549 1550 1551 1552 1553
1516 1516 1518 1519 1519 1520 1521 1522 1523 1524 1525 1525 1526 1527 1528 1528 1529 1529 1530 1531 1532 1532 1533 1533 1534 1535 1536 1537 1538 1539 1539 1540 1541 1542 1543 1544 1545 1546 1547 1548 1549 1550 1552
1514 1515 1516 1517 1518 1519 1520 1520 1521 1521 1522 1523 1524 1525 1526 1526 1527 1527 1528 1529 1529 1530 1531 1532 1532 1533 1533 1534 1536 1536 1537 1538 1539 1539 1540 1541 1542 1543 1545 1546 1547 1548 1549
1512 1513 1514 1515 1516 1517 1518 1518 1518 1519 1520 1521 1522 1523 1524 1524 1525 1525 1526 1526 1527 1528 1529 1529 1530 1531 1531 1532 1533 1534 1535 1535 1536 1537 1538 1539 1540 1541 1542 1543 1545 1546 1547
1510 1511 1512 1513 1513 1514 1515 1516 1516 1517 1518 1519 1520 1520 1521 1522 1522 1523 1523 1524 1524 1525 1526 1527 1527 1528 1528 1529 1530 1531 1532 1533 1534 1534 1535 1536 1537 1538 1540 1541 1542 1543 1544
1508 1509 1509 1510 1511 1512 1512 1513 1514 1514 1515 1516 1517 1518 1519 1519 1519 1520 1521 1521 1522 1522 1523 1524 1524 1525 1525 1526 1527 1528 1529 1530 1531 1531 1532 1533 1534 1535 1537 1538 1539 1540 1541
1507 1507 1507 1508 1508 1509 1510 1510 1511 1512 1513 1513 1514 1515 1516 1516 1517 1517 1518 1518 1519 1519 1520 1521 1521 1522 1523 1523 1524 1525 1526 1527 1528 1528 1529 1530 1532 1533 1534 1535 1536 1537 1538
1505 1505 1505 1506 1506 1506 1507 1507 1508 1509 1510 1510 1511 1512 1512 1513 1513 1514 1515 1515 1516 1516 1517 1517 1518 1519 1520 1521 1522 1522 1523 1524 1525 1525 1526 1527 1528 1530 1531 1532 1533 1534 1535
1503 1503 1503 1503 1504 1504 1504 1505 1505 1506 1506 1507 1508 1509 1509 1510 1510 1510 1511 1512 1512 1513 1513 1514 1515 1515 1516 1518 1519 1520 1520 1522 1521 1522 1523 1524 1525 1527 1528 1529 1530 1531 1532
1501 1501 1501 1501 1501 1502 1502 1502 1503 1503 1504 1504 1505 1505 1506 1507 1507 1507 1508 1508 1509 1509 1510 1510 1512 1512 1513 1515 1516 1518 1518 1518 1518 1519 1520 1521 1522 1523 1524 1525 1526 1528 1529
1500 1500 1500 1499 1499 1499 1499 1499 1500 1500 1500 1500 1501 1502 1502 1503 1504 1504 1505 1505 1505 1506 1506 1507 1508 1509 1510 1511 1513 1514 1516 1516 1517 1515 1516 1517 1518 1519 1520 1522 1523 1524 1525
1499 1499 1498 1497 1497 1497 1497 1497 1497 1497 1498 1498 1498 1498 1499 1500 1500 1501 1501 1501 1502 1502 1503 1504 1504 1505 1506 1507 1509 1510 1512 1513 1513 1513 1513 1513 1514 1515 1517 1518 1519 1520 1521
1498 1497 1496 1495 1495 1494 1494 1494 1494 1495 1495 1495 1495 1495 1495 1496 1496 1497 1497 1498 1498 1498 1499 1500 1500 1501 1502 1503 1505 1506 1508 1509 1509 1510 1510 1510 1511 1511 1512 1514 1515 1516 1518